    Orbital elements:
    2010 WC9                                                 Earth MOID = 0.0014 AU
    Epoch 2018 Mar. 23.0 TT = JDT 2458200.5                 MPC
    M 251.05888              (2000.0)            P               Q
    n   0.87928470     Peri.  273.52525     +0.80989459     +0.52969528
    a   1.0790702      Node    54.65544     -0.33517716     +0.77044644
    e   0.2786131      Incl.   17.99395     -0.48138034     +0.35473258
    P   1.12           H   23.5           G   0.15           U   2
    Residuals in seconds of arc
    101130 G96  0.2-  0.1+    101210 695  0.1+  0.0     180509 K87  0.0   0.1-
    101130 G96  0.4+  0.1+    101210 695  0.2+  0.1-    180509 J95  0.1+  0.2+
    101130 G96  0.1+  0.1-    101210 695  0.1+  0.1-    180509 J95  0.3+  0.1+
    101130 G96  0.4-  0.2-    180508 G96  0.5+  0.0     180509 J95  0.3-  0.1-
    101130 G96  0.5-  0.5-    180508 G96  0.1+  0.0     180509 J95  0.2-  0.1+
    101130 G96  0.1+  0.4+    180508 G96  0.1-  0.0     180509 850  0.5-  0.3+
    101130 G96  0.1+  0.1+    180508 G96  0.1-  0.0     180509 850  0.3+  0.1-
    101130 G96  0.8-  0.5-    180508 G96  0.1-  0.0     180509 I52  0.1+  0.1-
    101130 G96  0.1-  0.8-    180508 G96  0.1-  0.0     180509 850  0.2-  0.1+
    101130 G96  0.6+  0.6+    180508 I52  0.1+  0.0     180509 I52  0.0   0.2+
    101201 G96  0.1-  0.1+    180508 I52  0.3-  0.0     180509 I52  0.0   0.3-
    101201 G96  0.5-  0.4+    180508 I52  0.4+  0.1+    180509 I52  0.2-  0.0
    101201 G96  0.0   0.2-    180508 I52  0.0   0.2-    180509 850  0.3-  0.1-
    101201 G96  0.4+  0.4+    180508 K88  0.5+  0.1+    180509 850  0.2+  0.1-
    101201 H36  0.2-  0.1-    180508 K88  0.2+  0.1+    180509 850  0.1+  0.1+
    101201 H36  0.5+  0.4-    180508 K88  0.4+  0.2+    180509 711  0.4+  0.0
    101201 H01  0.0   0.2+    180508 K88  0.3+  0.2+    180509 711  0.3+  0.1+
    101201 H01  0.0   0.1+    180508 L01  0.5-  0.2-    180509 711  0.3+  0.1-
    101201 H01  0.1-  0.2+    180508 L01  0.3-  0.1-    180509 T05  0.1-  0.2-
    101201 H01  0.0   0.1+    180508 L01  0.2-  0.0     180509 T05  0.6+  0.1+
    101206 H21  0.3+  0.1+    180508 L01  0.3-  0.2-    180509 T05  0.0   0.1+
    101206 H21  0.6+  0.1-    180509 Z80  0.6-  0.3+    180509 T05  0.1+  0.0
    101206 H21  0.6+  0.0     180509 Z80  0.1-  0.3-    180509 595  0.4+  0.1-
    101207 568  0.0   0.0     180509 Z80  0.4-  0.8-    180509 595  0.3+  0.4+
    101207 568  0.0   0.0     180509 Z80  0.8-  0.1-    180509 595  0.3+  0.3+
    101207 568  0.0   0.0     180509 K87  0.1+  0.0     180509 J04  0.1+  0.1+
    101208 H21  0.0   0.2+    180509 K87  0.1-  0.2-    180509 J04  0.1+  0.0
    101208 H21  0.1-  0.3+    180509 K87  0.1-  0.2-    180509 J04  0.0   0.1+
    101208 H21  0.0   0.3-    180509 K87  0.2+  0.1-
    101210 695  0.2+  0.1-    180509 K87  0.1-  0.2-
    
    Ephemeris:
    2010 WC9                 a,e,i = 1.08, 0.28, 18                  q = 0.7784
    Date    TT    R. A. (2000) Decl.     Delta      r     Elong.  Phase     V
    2018 04 10    16 29 49.3 +20 25 21   0.2684  1.1733   124.1    45.0    22.7
    ...
    2018 04 25    16 39 41.9 +22 07 49   0.1543  1.1095   129.0    44.8    21.4
    ...
    2018 05 03    16 42 46.2 +22 33 44   0.09490 1.0730   131.4    44.8    20.3
    ...
    2018 05 09    16 44 23.2 +22 13 11   0.05074 1.0449   133.3    44.6    18.8
    2018 05 10    16 44 38.8 +22 00 13   0.04341 1.0402   133.8    44.5    18.5
    2018 05 11    16 44 56.0 +21 40 34   0.03608 1.0354   134.3    44.3    18.1
    ...
    2018 05 17    04 40 03.7 -32 20 08   0.0080321.0065    53.9   125.7    18.3
    ...
    2018 05 25    04 43 47.3 -23 26 37   0.06650 0.9671    45.2   132.0    23.4
    ...
    2018 06 09    04 42 54.2 -20 29 48   0.1783  0.8949    43.8   128.3    25.1
    
    A. U. Tomatic                (C) Copyright 2018 MPC           M.P.E.C. 2018-J35
    

    Read MPEC 2018-J34 Read MPEC 2018-J36


    MPEC number:

    Enter an MPEC number in one of the following forms:

    • 1997-B01 (the full form)
    • J97B01 (the packed version of the full form)
    • B01 (the abbreviated form)